GW5798 Weather Reports


Display with metric or nautical units.
time (UTC)temp
F
wind
direction
speed
MPH
gust
MPH
rain 1hr
in
rain 24hr
in
rain mn
in
humidity
%
barometer
mb
20260508213050 76 68 1.0 4.0 0.00 0.01 0.01 85 1009.7
20260508212040 76 251 0.0 4.0 0.00 0.01 0.01 86 1010.0
20260508211030 76 245 1.0 2.0 0.00 0.01 0.01 85 1010.3
20260508210040 76 8 0.0 2.0 0.00 0.01 0.01 86 1010.2
20260508205111 76 241 1.0 3.0 0.00 0.01 0.01 85 1010.4
20260508204101 76 143 1.0 2.0 0.00 0.01 0.01 84 1010.4
20260508203051 76 175 1.0 4.0 0.00 0.01 0.01 84 1010.3
20260508202041 76 289 1.0 6.0 0.00 0.01 0.01 84 1010.6
20260508201031 76 248 1.0 3.0 0.00 0.01 0.01 85 1010.5
20260508200041 75 78 1.0 4.0 0.00 0.01 0.01 87 1010.6
20260508195152 74 195 0.0 1.0 0.01 0.01 0.01 88 1011.0
20260508194122 74 331 1.0 4.0 0.01 0.01 0.01 88 1010.9
20260508193052 73 253 0.0 3.0 0.01 0.01 0.01 89 1010.9
20260508192042 73 33 0.0 2.0 0.01 0.01 0.01 89 1011.5
20260508191032 72 52 0.0 2.0 0.01 0.01 0.01 89 1011.7
20260508190022 72 52 0.0 1.0 0.01 0.01 0.01 88 1011.9
20260508185113 73 169 0.0 1.0 0.00 0.00 0.00 87 1011.7
20260508184103 73 190 0.0 2.0 0.00 0.00 0.00 85 1011.6
20260508183052 74 98 1.0 3.0 0.00 0.00 0.00 86 1011.4
20260508182103 73 21 1.0 3.0 0.00 0.00 0.00 88 1011.5
20260508181033 72 175 1.0 6.0 0.00 0.00 0.00 88 1011.5
20260508180042 72 318 0.0 3.0 0.00 0.00 0.00 88 1011.8
20260508175113 72 0.0 1.0 0.00 0.00 0.00 87 1012.1
20260508174104 72 349 1.0 2.0 0.00 0.00 0.00 85 1012.4
20260508173053 72 349 0.0 3.0 0.00 0.00 0.00 83 1012.3
20260508172043 71 301 0.0 1.0 0.00 0.00 0.00 84 1012.6
20260508171033 71 225 1.0 3.0 0.00 0.00 0.00 83 1012.5
20260508170023 72 48 1.0 3.0 0.00 0.00 0.00 82 1012.6
20260508165114 72 247 1.0 4.0 0.00 0.00 0.00 82 1012.7
20260508164144 71 274 1.0 4.0 0.00 0.00 0.00 83 1012.9
20260508163054 71 263 1.0 4.0 0.00 0.00 0.00 82 1012.9
20260508162044 72 14 1.0 4.0 0.00 0.00 0.00 82 1012.8
20260508161034 71 72 1.0 4.0 0.00 0.00 0.00 82 1012.7
20260508160044 70 114 2.0 7.0 0.00 0.00 0.00 84 1012.9
20260508155115 69 138 1.0 4.0 0.00 0.00 0.00 84 1013.3
20260508154125 69 89 2.0 7.0 0.00 0.00 0.00 84 1013.4
20260508153055 69 190 0.0 3.0 0.00 0.00 0.00 84 1013.5
20260508152045 69 53 1.0 6.0 0.00 0.00 0.00 84 1013.5
20260508151035 69 149 1.0 2.0 0.00 0.00 0.00 84 1013.3
20260508150025 69 245 1.0 4.0 0.00 0.00 0.00 85 1013.4
20260508145116 69 131 1.0 3.0 0.00 0.00 0.00 86 1013.4
20260508144126 69 355 0.0 2.0 0.00 0.00 0.00 87 1013.4
20260508143056 69 354 1.0 3.0 0.00 0.00 0.00 88 1013.2
20260508142046 69 71 1.0 3.0 0.00 0.00 0.00 88 1013.3
20260508141035 69 123 0.0 3.0 0.00 0.00 0.00 88 1013.4
20260508140026 69 28 0.0 2.0 0.00 0.00 0.00 88 1013.4
20260508135136 69 342 0.0 1.0 0.00 0.00 0.00 88 1013.4
20260508134226 69 22 0.0 2.0 0.00 0.00 0.00 87 1013.3
20260508133056 69 338 0.0 1.0 0.00 0.00 0.00 88 1013.1
20260508132046 69 276 0.0 1.0 0.00 0.00 0.00 88 1013.1
20260508131036 69 307 0.0 2.0 0.00 0.00 0.00 86 1013.4
20260508130026 69 194 0.0 2.0 0.00 0.00 0.00 84 1013.4
20260508125036 69 38 0.0 2.0 0.00 0.00 0.00 84 1013.3
20260508124107 69 330 1.0 3.0 0.00 0.00 0.00 84 1013.3
20260508123057 69 174 0.0 2.0 0.00 0.00 0.00 84 1013.3
20260508122047 69 149 1.0 3.0 0.00 0.00 0.00 84 1013.2
20260508121037 69 74 1.0 3.0 0.00 0.00 0.00 84 1013.2
20260508120027 69 315 0.0 1.0 0.00 0.00 0.00 84 1013.6
20260508115037 69 14 0.0 1.0 0.00 0.00 0.00 84 1014.0
20260508114108 69 303 0.0 2.0 0.00 0.00 0.00 84 1014.1
20260508113058 69 298 0.0 3.0 0.00 0.00 0.00 84 1013.8
20260508112048 69 62 0.0 1.0 0.00 0.00 0.00 83 1013.4
20260508111038 68 352 0.0 2.0 0.00 0.00 0.00 83 1013.1
20260508110028 68 191 0.0 2.0 0.00 0.00 0.00 83 1012.9
20260508105018 68 69 1.0 3.0 0.00 0.00 0.00 82 1013.1
20260508104108 68 59 1.0 4.0 0.00 0.00 0.00 82 1012.9
20260508103059 68 138 1.0 4.0 0.00 0.00 0.00 81 1013.0
20260508102048 69 135 0.0 2.0 0.00 0.00 0.00 81 1013.3
20260508101059 69 98 1.0 4.0 0.00 0.00 0.00 80 1013.3
20260508100029 69 358 1.0 4.0 0.00 0.00 0.00 79 1013.7
20260508095058 69 172 0.0 2.0 0.00 0.00 0.00 79 1013.2
20260508094109 69 350 0.0 1.0 0.00 0.00 0.00 79 1013.2
20260508093120 70 49 0.0 2.0 0.00 0.00 0.00 78 1013.3
20260508092049 70 297 1.0 3.0 0.00 0.00 0.00 78 1013.0
20260508091039 70 350 0.0 3.0 0.00 0.00 0.00 78 1012.5
20260508090050 69 301 1.0 2.0 0.00 0.00 0.00 79 1012.6
20260508085039 69 51 0.0 2.0 0.00 0.00 0.00 79 1012.6
20260508084110 69 62 1.0 3.0 0.00 0.00 0.00 79 1013.0
20260508083100 69 74 1.0 3.0 0.00 0.00 0.00 79 1013.2
20260508082050 69 335 0.0 1.0 0.00 0.00 0.00 79 1013.3
20260508081040 69 357 0.0 2.0 0.00 0.00 0.00 79 1013.1
20260508080030 69 334 0.0 3.0 0.00 0.00 0.00 78 1013.2
20260508075020 69 20 0.0 2.0 0.00 0.00 0.00 78 1013.2
20260508074111 70 298 0.0 2.0 0.00 0.00 0.00 77 1013.6
20260508073101 70 297 0.0 2.0 0.00 0.00 0.00 77 1013.5
20260508072051 70 54 0.0 2.0 0.00 0.00 0.00 76 1013.7
20260508071041 71 275 0.0 1.0 0.00 0.00 0.00 76 1013.7
20260508070031 71 6 0.0 1.0 0.00 0.00 0.00 75 1013.6
20260508065020 71 0.0 0.0 0.00 0.00 0.00 75 1014.0
20260508064132 71 45 0.0 2.0 0.00 0.00 0.00 75 1013.9
20260508063102 71 45 0.0 2.0 0.00 0.00 0.00 75 1013.8
20260508062112 71 37 0.0 2.0 0.00 0.00 0.00 75 1013.4
20260508061042 71 68 1.0 2.0 0.00 0.00 0.00 75 1013.4
20260508060032 70 347 0.0 1.0 0.00 0.00 0.00 75 1013.5
20260508055021 70 50 0.0 1.0 0.00 0.00 0.00 74 1013.6
20260508054112 70 356 0.0 2.0 0.00 0.00 0.00 74 1013.7
20260508053103 71 52 0.0 2.0 0.00 0.00 0.00 73 1013.5
20260508052112 71 0.0 0.0 0.00 0.00 0.00 73 1013.8
20260508051042 71 334 0.0 2.0 0.00 0.00 0.00 72 1013.6
20260508050113 71 5 1.0 2.0 0.00 0.00 0.00 71 1013.7
20260508045023 71 126 0.0 2.0 0.00 0.00 0.00 71 1013.8
20260508044113 71 0.0 1.0 0.00 0.00 0.00 71 1013.8
20260508043103 72 66 0.0 2.0 0.00 0.00 0.00 70 1013.8
20260508042113 72 121 0.0 3.0 0.00 0.00 0.00 69 1014.1
20260508041043 72 67 0.0 3.0 0.00 0.00 0.00 69 1014.0
20260508040033 72 18 0.0 1.0 0.00 0.00 0.00 68 1014.0
20260508035023 72 65 1.0 4.0 0.00 0.00 0.00 68 1013.5
20260508034114 72 256 2.0 4.0 0.00 0.00 0.00 69 1012.8
20260508033104 72 2 1.0 3.0 0.00 0.00 0.00 70 1013.3
20260508032054 73 272 1.0 3.0 0.00 0.00 0.00 69 1013.9
20260508031044 73 71 1.0 6.0 0.00 0.00 0.00 71 1014.1
20260508030034 73 0.0 0.0 0.00 0.00 0.00 72 1014.2
20260508025024 73 32 0.0 2.0 0.00 0.00 0.00 71 1014.3
20260508024115 73 126 0.0 1.0 0.00 0.00 0.00 71 1014.4
20260508023205 73 284 0.0 1.0 0.00 0.00 0.00 71 1014.1
20260508021045 73 344 0.0 1.0 0.00 0.00 0.00 71 1014.1
20260508020035 74 0.0 0.0 0.00 0.00 0.00 70 1014.0
20260508015025 74 30 0.0 2.0 0.00 0.00 0.00 69 1013.9
20260508014115 74 78 0.0 1.0 0.00 0.00 0.00 68 1013.9
20260508013105 74 0.0 1.0 0.00 0.00 0.00 67 1013.9
20260508012056 75 90 0.0 1.0 0.00 0.00 0.00 66 1014.0
20260508011045 75 34 0.0 1.0 0.00 0.00 0.00 64 1014.0
20260508010035 75 64 1.0 2.0 0.00 0.00 0.00 63 1013.9
20260508005045 75 94 0.0 6.0 0.00 0.00 0.00 64 1014.0
20260508004116 76 23 0.0 1.0 0.00 0.00 0.00 65 1014.0
20260508003106 76 104 1.0 4.0 0.00 0.00 0.00 65 1013.8
20260508002116 76 85 1.0 3.0 0.00 0.00 0.00 65 1013.8
20260508001046 76 28 1.0 3.0 0.00 0.00 0.00 66 1014.0
20260508000036 76 46 1.0 3.0 0.00 0.00 0.00 67 1014.1
20260507235046 76 16 1.0 3.0 0.00 0.00 0.00 68 1014.1
20260507234137 77 284 1.0 3.0 0.00 0.00 0.00 68 1014.2
20260507233107 77 356 1.0 2.0 0.00 0.00 0.00 68 1014.1
20260507232058 77 284 1.0 2.0 0.00 0.00 0.00 69 1014.0
20260507231047 78 247 1.0 3.0 0.00 0.00 0.00 68 1013.8
20260507230037 78 317 1.0 3.0 0.00 0.00 0.00 67 1013.6
20260507225028 78 2 0.0 2.0 0.00 0.00 0.00 67 1013.7
20260507224017 78 79 1.0 4.0 0.00 0.00 0.00 67 1013.5
20260507223108 78 21 1.0 4.0 0.00 0.00 0.00 67 1013.2
20260507222058 77 279 1.0 3.0 0.00 0.00 0.00 68 1013.3
20260507221048 77 320 1.0 4.0 0.00 0.00 0.00 68 1013.3
20260507220038 77 149 1.0 3.0 0.00 0.00 0.00 68 1013.6
20260507215048 78 123 1.0 3.0 0.00 0.00 0.00 67 1013.8
20260507214017 78 102 2.0 6.0 0.00 0.00 0.00 67 1014.0